This is the latest recevied weather packets stored in our database for station/object K5OBH. If no packets are shown the sender has not sent any weather packets the latest 1 day(s).
| Time | Temp. | Humidity | Pressure | Rain* | Wind** | Luminosity | Snow |
|---|---|---|---|---|---|---|---|
| 1777986339 | 20.56° C | 85% | 1001.7 hPa | 0 mm | 0.45 m/s, 352° | 108 W/m² | - |
| 1777986037 | 20.56° C | 85% | 1001.3 hPa | 0 mm | 0 m/s | 93 W/m² | - |
| 1777985733 | 20.56° C | 85% | 1001.5 hPa | 0 mm | 0.89 m/s, 22° | 78 W/m² | - |
| 1777985430 | 20.56° C | 86% | 1001.4 hPa | 0 mm | 0 m/s | 85 W/m² | - |
| 1777985127 | 20.56° C | 85% | 1001.3 hPa | 0 mm | 0.45 m/s, 329° | 56 W/m² | - |
| 1777984823 | 20.56° C | 84% | 1001.2 hPa | 0 mm | 0 m/s | 54 W/m² | - |
| 1777984520 | 20.56° C | 84% | 1001.1 hPa | 0 mm | 0.89 m/s, 339° | 48 W/m² | - |
| 1777984216 | 20.56° C | 84% | 1000.7 hPa | 0 mm | 1.34 m/s, 216° | 39 W/m² | - |
| 1777983913 | 20.56° C | 84% | 1000.7 hPa | 0 mm | 1.79 m/s, 230° | 30 W/m² | - |
| 1777983610 | 20.56° C | 83% | 1000.3 hPa | 0 mm | 3.13 m/s, 218° | 30 W/m² | - |
| 1777983306 | 20.56° C | 84% | 1000.5 hPa | 0 mm | 1.79 m/s, 218° | 23 W/m² | - |
| 1777983003 | 20° C | 84% | 1000.3 hPa | 0 mm | 2.24 m/s, 214° | 20 W/m² | - |
| 1777982699 | 20.56° C | 84% | 1000.2 hPa | 0 mm | 1.34 m/s, 235° | 15 W/m² | - |
| 1777982398 | 20° C | 84% | 1000 hPa | 0 mm | 2.24 m/s, 214° | 12 W/m² | - |
| 1777982094 | 20.56° C | 84% | 1000.3 hPa | 0 mm | 1.79 m/s, 201° | 8 W/m² | - |
| 1777981793 | 20.56° C | 84% | 1000 hPa | 0 mm | 1.79 m/s, 251° | 5 W/m² | - |
| 1777981489 | 20.56° C | 83% | 999.8 hPa | 0 mm | 1.34 m/s, 207° | 4 W/m² | - |
| 1777981186 | 20.56° C | 84% | 999.9 hPa | 0 mm | 3.13 m/s, 183° | 2 W/m² | - |
| 1777980882 | 20.56° C | 83% | 999.8 hPa | 0 mm | 1.34 m/s, 174° | 1 W/m² | - |
| 1777980577 | 20.56° C | 83% | 999.4 hPa | 0 mm | 2.68 m/s, 239° | 1 W/m² | - |
| 1777980275 | 20.56° C | 82% | 999.6 hPa | 0 mm | 2.68 m/s, 182° | 0 W/m² | - |
| 1777979972 | 20.56° C | 82% | 999.5 hPa | 0 mm | 3.58 m/s, 214° | 0 W/m² | - |
| 1777979666 | 20.56° C | 82% | 999.5 hPa | 0 mm | 3.13 m/s, 217° | 0 W/m² | - |
| 1777979363 | 20.56° C | 82% | 999.5 hPa | 0 mm | 2.24 m/s, 221° | 0 W/m² | - |
| 1777979060 | 20.56° C | 82% | 999.3 hPa | 0 mm | 4.02 m/s, 227° | 0 W/m² | - |
* Rain latest hour (hover to see other rain measurements)
** Current wind speed in m/s (hover to see current wind gust speed)